EHI
0 0 0 0 0 0 0 0 0 0 1 1 1 1 1 1 2 4 5 10 15 16 18 25 32 34 32 30 28 27 22 16 13 13 14 14 11 7 5 6 8 8 7 6
0 0 0 0 0 0 0 0 0 0 0 1 2 1 1 1 3 4 7 12 16 17 18 24 30 32 31 30 29 27 22 16 13 13 14 13 10 8 6 6 7 7 7 6
0 0 0 0 0 0 0 0 0 0 0 1 3 1 0 2 4 6 10 15 19 18 17 23 29 30 29 29 28 26 21 16 14 14 13 11 9 8 6 5 5 5 6 6
0 0 0 0 0 0 0 0 0 0 0 1 1 1 0 2 5 8 10 15 18 17 18 24 28 29 29 29 27 24 20 16 15 15 13 11 9 8 6 4 3 3 4 5
0 0 0 0 0 0 0 0 0 0 0 0 0 0 0 1 4 6 10 14 16 16 18 24 28 29 30 30 28 24 19 16 15 15 14 11 10 9 6 4 3 3 3 4
0 0 0 0 0 0 0 0 0 0 0 0 0 0 0 1 3 5 9 13 14 15 19 24 28 29 31 31 29 25 20 17 16 15 14 12 10 8 5 4 3 3 3 3
0 0 0 0 0 0 0 0 0 0 0 0 0 0 0 2 4 6 9 12 13 14 19 24 27 28 30 31 30 26 23 19 17 15 13 11 10 8 6 4 3 3 3 3
0 0 0 0 0 0 0 0 0 0 0 0 0 0 0 1 3 5 8 11 11 12 16 21 25 26 27 29 29 28 26 23 19 15 12 10 10 9 8 5 3 3 2 1
0 0 0 0 0 0 0 0 0 0 0 0 0 0 0 0 1 3 6 9 9 8 10 16 21 23 23 24 25 26 25 23 20 16 11 10 10 9 8 6 4 2 1 1
0 0 0 0 0 0 0 0 0 0 0 0 0 0 0 0 1 2 4 7 8 7 7 11 17 20 20 21 22 22 21 20 18 14 11 10 9 9 7 6 5 2 1 1
0 0 0 0 0 0 0 0 0 0 0 0 0 0 0 0 0 1 3 6 7 7 6 8 13 18 19 21 22 21 19 17 15 12 10 9 9 7 7 6 5 3 1 1
0 0 0 0 0 0 0 0 0 0 0 0 0 0 0 1 1 1 2 5 7 6 6 8 10 15 19 20 21 21 18 16 13 11 10 9 8 7 6 6 5 4 3 2
0 0 0 0 0 0 0 0 0 0 0 0 0 0 0 1 2 2 3 5 6 7 8 8 9 12 16 17 18 18 16 14 12 10 10 9 9 8 7 6 4 3 3 3
0 0 0 0 0 0 0 0 0 0 0 0 0 0 0 1 1 1 2 4 5 7 8 8 8 9 12 15 15 15 14 13 12 11 10 10 10 10 9 7 5 3 3 3
0 0 0 0 0 0 0 0 0 0 0 0 0 0 0 0 0 0 2 4 5 6 7 6 6 8 11 14 14 13 13 13 12 12 12 11 10 10 10 8 6 4 3 3
0 0 0 0 0 0 0 0 0 0 0 0 0 0 0 0 0 1 1 2 4 4 5 4 5 8 12 14 14 13 13 13 13 14 13 11 10 10 11 10 8 5 4 3
0 0 0 0 0 0 0 0 0 0 0 0 0 0 0 0 1 1 1 1 2 2 3 5 7 10 14 15 14 14 14 14 14 14 13 11 9 10 12 11 9 6 4 4
0 0 0 0 0 0 0 0 0 0 0 0 0 0 0 1 2 2 1 2 2 2 4 8 10 11 13 15 15 15 14 14 14 13 12 10 10 10 12 12 10 7 5 4
0 0 0 0 0 0 0 0 0 0 0 0 0 0 1 2 1 1 1 2 3 3 5 9 11 11 12 14 15 14 14 14 13 11 10 10 10 10 11 11 9 7 5 2
0 0 0 0 0 0 0 0 0 0 0 0 0 1 2 2 2 2 3 4 5 6 7 8 9 10 11 11 13 13 12 12 11 10 10 10 10 10 10 9 7 5 3 1
0 0 0 0 0 0 0 1 0 0 0 0 1 2 3 4 4 5 5 6 6 7 8 8 8 8 9 10 10 11 11 10 10 10 10 10 10 9 9 8 5 4 2 1
0 0 0 0 0 0 0 0 0 0 0 0 1 3 4 5 6 7 7 7 7 8 8 8 8 7 7 8 9 9 9 10 10 10 10 9 9 8 8 6 4 3 2 1
0 0 0 0 0 0 0 0 0 0 0 0 1 4 6 6 7 8 8 8 8 8 9 9 7 6 5 6 7 7 8 9 9 9 9 8 8 7 7 6 4 3 2 1
0 0 0 0 0 0 0 1 1 1 1 1 1 3 4 5 6 7 7 7 7 7 8 8 7 4 3 5 6 6 7 8 8 8 7 7 7 6 6 6 5 4 3 1
0 0 0 0 0 0 1 3 4 3 2 2 2 1 2 3 3 4 4 5 5 4 4 5 4 2 2 3 4 4 5 6 6 6 6 6 6 6 6 6 5 4 2 1
0 0 0 0 0 0 1 3 4 4 3 3 1 0 1 2 2 1 1 2 2 1 1 2 1 0 1 2 3 3 4 4 5 6 6 6 6 6 6 6 5 4 2 0
Wind_Speed
1 3 5 8 9 8 5 5 8 10 6 3 4 4 4 5 5 5 5 6 8 8 6 7 7 8 8 7 8 8 7 6 5 3 3 2 2 2 1 1 2 2 2 2
1 6 12 8 7 5 5 7 9 8 4 2 2 3 3 4 6 7 8 8 8 7 6 6 6 6 7 8 8 7 7 6 5 4 3 2 2 1 1 1 1 1 1 2
8 9 7 7 6 7 8 7 7 6 4 1 1 4 3 2 2 4 6 8 9 11 11 9 8 7 7 7 8 8 7 7 6 5 3 3 2 2 1 0 0 0 1 1
6 8 5 6 8 8 8 7 6 4 1 3 0 2 5 2 3 6 7 7 8 9 9 10 10 9 9 8 7 7 6 6 5 6 5 5 4 2 2 1 1 1 1 1
6 5 5 6 8 6 7 6 3 2 1 1 2 1 6 1 4 6 7 7 8 10 11 11 11 11 10 9 8 7 6 5 5 5 5 5 3 2 1 1 1 0 1 0
8 6 5 7 7 5 4 1 3 3 3 1 4 3 5 4 7 6 6 6 7 8 9 9 8 8 8 7 7 7 7 5 4 5 5 5 4 3 3 2 1 1 1 1
7 8 5 3 2 4 1 4 4 5 3 5 3 2 6 6 5 6 7 7 7 8 9 9 8 7 7 8 7 7 7 5 5 5 5 5 5 5 5 3 3 2 1 1
3 6 5 2 4 5 3 7 6 4 4 4 2 3 5 3 1 2 4 6 6 7 7 8 10 9 8 8 8 7 7 5 5 5 4 4 4 3 3 3 3 3 2 2
3 5 4 3 2 5 2 3 7 6 2 1 3 3 4 4 3 3 4 5 5 5 5 6 7 8 9 8 7 7 7 5 4 5 4 3 3 3 3 3 2 2 2 2
4 4 5 4 2 1 5 5 4 4 3 3 3 3 4 2 2 2 5 6 6 5 5 5 7 8 7 8 7 6 6 5 4 3 3 3 3 3 3 3 2 2 1 2
2 2 4 2 2 3 0 1 3 3 4 4 3 6 5 7 6 4 5 5 6 7 7 5 5 7 7 7 7 6 5 5 3 3 2 3 3 2 3 2 3 2 1 2
0 3 2 5 5 3 3 3 5 4 3 3 3 7 5 5 4 4 4 4 5 6 6 6 6 7 7 7 7 7 6 5 5 4 3 3 2 2 2 2 2 2 2 2
2 4 2 6 6 4 2 0 2 4 3 2 3 6 2 1 1 2 4 5 5 6 6 4 4 6 7 7 7 7 6 6 4 4 3 3 3 2 3 2 2 2 2 2
4 3 5 6 6 3 2 2 1 3 3 3 5 6 3 2 1 1 3 5 5 5 6 4 4 5 7 7 7 7 7 6 5 4 4 4 3 3 3 3 2 2 2 2
4 1 2 5 5 3 3 4 2 2 4 5 6 5 5 5 4 4 4 5 6 5 5 4 3 4 6 6 5 6 6 6 5 5 5 4 3 3 2 2 2 2 2 3
3 1 1 4 4 2 2 3 1 1 1 3 2 4 4 2 2 3 5 6 7 6 6 5 4 5 6 7 6 5 6 6 6 6 5 4 3 3 2 2 3 3 2 2
1 2 1 3 4 2 1 1 0 1 1 3 4 4 1 1 2 3 4 5 5 5 5 5 5 6 6 7 7 7 6 5 6 5 5 4 4 3 3 3 3 3 3 2
5 2 2 1 2 2 3 0 2 2 0 0 1 1 1 2 2 2 3 4 4 4 4 4 5 5 5 4 5 6 5 6 6 5 4 4 4 3 3 3 3 3 2 3
6 6 3 2 1 2 2 2 2 1 1 3 2 1 2 1 2 1 1 3 4 4 3 3 5 5 5 5 6 6 5 5 5 5 5 5 5 4 3 3 3 2 2 2
3 5 4 2 2 3 3 6 6 1 1 4 3 2 1 2 1 3 3 1 1 1 2 3 3 3 4 4 5 6 6 6 6 5 5 5 5 4 4 3 3 2 3 2
3 3 2 2 2 3 3 6 4 1 4 5 2 1 1 2 4 4 2 1 2 2 2 4 4 4 4 4 5 6 5 6 5 5 5 5 5 4 4 2 2 3 2 2
1 1 1 1 1 3 4 3 1 4 4 3 2 2 0 0 1 1 1 2 3 2 2 4 4 3 2 3 5 6 5 5 4 5 5 5 4 4 3 3 2 2 3 3
1 2 3 3 3 3 1 1 3 3 2 2 1 1 1 2 2 2 2 2 3 3 3 2 3 3 1 2 5 6 5 5 5 5 5 4 4 3 3 3 3 3 3 2
3 2 2 1 1 3 3 2 2 2 2 1 1 1 3 3 2 2 2 2 2 2 2 2 3 2 1 2 3 4 4 4 5 5 4 4 4 3 2 2 3 3 3 3
3 2 2 1 3 4 4 5 5 3 3 1 1 1 3 3 2 1 1 1 2 2 1 2 3 3 3 2 3 3 4 5 5 4 3 3 3 3 3 1 1 3 3 5
2 1 1 3 3 2 4 4 4 4 3 2 3 3 2 3 3 2 1 1 2 2 2 2 1 2 2 2 2 3 4 5 5 4 3 3 3 3 3 2 1 2 1 3
Wind_Direction
208 119 222 228 212 209 230 261 273 270 267 224 234 239 227 189 169 167 167 160 161 164 161 154 150 148 143 143 140 140 137 142 138 136 135 140 154 148 138 162 182 175 165 156
24 242 232 231 235 229 243 264 275 289 280 207 197 255 242 192 190 181 170 166 166 157 142 147 145 146 152 154 149 143 144 147 148 150 147 146 142 152 165 168 155 154 152 161
209 242 228 221 240 243 251 241 251 262 305 341 86 320 296 246 186 182 173 169 169 167 162 161 158 157 155 157 159 155 155 151 148 140 125 118 89 69 57 25 345 272 177 174
242 253 245 233 236 222 249 242 238 247 281 284 153 259 278 239 210 193 190 177 178 177 169 165 163 162 162 163 157 149 152 148 148 145 143 145 149 164 198 191 204 258 230 200
251 246 242 236 238 223 233 233 224 239 201 328 340 166 272 230 225 216 198 184 181 181 174 169 168 168 165 159 155 147 142 145 149 150 152 153 156 173 162 139 137 230 264 235
254 262 227 226 238 233 228 40 17 31 65 302 251 188 266 230 218 205 188 184 179 175 170 165 163 156 153 151 149 143 141 146 150 149 150 154 157 150 142 146 165 214 256 267
279 275 258 223 251 293 73 85 26 356 357 253 243 183 249 248 215 193 175 174 171 161 163 157 154 151 150 149 149 150 153 154 153 150 153 160 161 160 166 174 182 194 209 231
251 277 260 225 195 208 204 148 161 202 229 277 316 233 261 279 198 128 143 152 157 152 159 162 160 154 155 158 155 153 156 158 162 160 166 163 160 166 172 176 180 191 204 209
209 258 277 263 217 165 181 204 178 153 201 240 267 273 310 6 42 93 131 139 155 150 149 156 158 156 156 157 159 159 157 157 157 165 163 158 157 158 163 173 171 181 192 180
180 253 277 283 11 297 177 172 102 126 171 240 263 246 241 265 264 183 160 169 169 153 146 154 165 161 161 162 159 150 149 155 151 153 169 159 159 159 156 151 156 160 153 143
150 186 297 334 211 234 207 97 118 129 160 171 239 261 223 205 210 202 185 172 170 163 161 157 162 159 156 151 151 148 144 135 135 160 163 142 150 151 146 147 163 163 154 145
90 124 258 264 264 228 170 170 142 152 231 179 193 259 253 204 202 193 170 158 163 155 154 146 149 153 147 148 152 153 150 153 165 167 149 147 145 146 147 149 156 152 151 155
86 101 34 333 335 355 44 96 146 140 135 172 197 261 287 283 190 170 153 147 147 138 137 132 131 151 155 158 161 161 162 168 169 157 152 150 153 160 164 159 153 148 146 149
106 115 163 206 235 250 273 285 194 125 156 209 222 239 284 292 253 230 167 148 142 144 142 133 135 160 165 164 165 169 171 173 166 164 165 166 178 184 178 164 157 152 147 144
74 114 244 251 263 245 240 264 236 191 189 199 227 227 239 232 215 207 177 152 144 144 147 154 161 155 159 160 168 176 177 174 167 164 168 181 183 178 170 161 155 147 141 138
63 139 320 300 298 299 320 330 308 286 243 219 223 263 259 219 187 179 170 159 156 162 170 175 173 163 162 168 173 181 180 177 165 162 171 176 171 169 173 165 150 141 135 129
137 119 97 279 300 14 338 336 141 205 270 196 231 250 244 99 156 181 176 168 165 172 178 183 179 176 174 174 173 179 184 170 161 163 166 167 169 170 176 163 144 147 149 134
165 144 151 257 10 221 233 149 98 115 245 15 125 159 145 200 215 191 160 160 173 185 194 193 181 178 176 169 165 166 164 163 163 162 163 166 162 159 161 149 149 154 157 154
166 151 142 137 179 255 283 326 332 294 294 22 37 30 27 51 73 341 218 174 189 193 194 192 176 170 166 163 159 153 156 158 159 164 169 168 162 160 161 165 164 167 156 152
93 116 127 154 177 224 268 306 315 140 282 352 16 26 351 81 112 255 258 204 157 163 150 146 148 142 151 163 155 152 161 162 168 171 170 166 163 165 171 178 176 170 159 159
32 47 118 177 207 252 308 317 -0 121 261 297 301 246 166 178 217 235 224 161 139 149 162 146 146 155 169 168 155 155 157 168 174 167 162 162 166 171 172 171 169 158 146 136
139 116 162 135 180 263 330 24 71 237 263 271 302 306 303 61 83 139 152 144 128 117 119 136 144 162 171 162 152 157 168 171 163 160 163 168 172 176 163 152 148 143 144 137
78 194 193 181 204 253 271 229 255 248 249 276 263 268 124 95 111 127 119 124 131 133 129 123 137 143 156 162 157 163 180 169 160 159 163 166 169 168 158 156 158 156 154 149
326 356 61 26 327 308 310 328 318 283 251 254 185 154 128 116 111 113 125 122 113 118 138 131 129 137 189 182 161 167 174 165 157 163 167 165 162 161 160 162 166 163 169 166
311 355 21 329 317 335 340 344 346 354 24 39 78 83 109 115 132 138 145 118 111 96 121 137 148 167 196 179 156 165 165 156 155 163 169 171 167 165 161 158 175 175 189 184
309 274 217 248 275 273 289 315 360 14 22 43 81 54 68 101 107 99 95 92 110 111 99 94 115 146 175 163 159 170 166 159 158 168 181 182 171 166 161 146 83 39 146 183